Satellite: NOAA-11 Catalog number: 19531 Epoch time: 07241.32520845 Element set: 0807 Inclination: 098.8115 deg RA of node: 329.5784 deg Eccentricity: 0.0011534 Arg of perigee: 178.8628 deg Mean anomaly: 181.2683 deg Mean motion: 14.14848719 rev/day Decay rate: -2.13e-06 rev/day^2 Epoch rev: 97649 Checksum: 331
Satellite: NOAA-12 Catalog number: 21263 Epoch time: 07241.51019894 Element set: 0309 Inclination: 098.7561 deg RA of node: 238.6427 deg Eccentricity: 0.0011544 Arg of perigee: 254.9086 deg Mean anomaly: 105.0897 deg Mean motion: 14.25492019 rev/day Decay rate: 9.2e-07 rev/day^2 Epoch rev: 84669 Checksum: 319
Satellite: MET-3/5 Catalog number: 21655 Epoch time: 07242.85048635 Element set: 314 Inclination: 082.5592 deg RA of node: 310.2019 deg Eccentricity: 0.0014207 Arg of perigee: 026.8144 deg Mean anomaly: 333.3711 deg Mean motion: 13.17011163 rev/day Decay rate: 5.1e-07 rev/day^2 Epoch rev: 77123 Checksum: 257
Satellite: MET-2/21 Catalog number: 22782 Epoch time: 07241.76878421 Element set: 0920 Inclination: 082.5528 deg RA of node: 343.5425 deg Eccentricity: 0.0023384 Arg of perigee: 033.5380 deg Mean anomaly: 326.7261 deg Mean motion: 13.83616334 rev/day Decay rate: -1.8e-07 rev/day^2 Epoch rev: 70669 Checksum: 306
Satellite: OKEAN-4 Catalog number: 23317 Epoch time: 07241.61411134 Element set: 0358 Inclination: 082.5360 deg RA of node: 228.0238 deg Eccentricity: 0.0022733 Arg of perigee: 015.9099 deg Mean anomaly: 344.2844 deg Mean motion: 14.82528860 rev/day Decay rate: 2.89e-06 rev/day^2 Epoch rev: 69493 Checksum: 303
Satellite: NOAA-14 Catalog number: 23455 Epoch time: 07241.68495654 Element set: 0788 Inclination: 098.9841 deg RA of node: 308.2428 deg Eccentricity: 0.0008675 Arg of perigee: 249.4190 deg Mean anomaly: 110.6069 deg Mean motion: 14.13723305 rev/day Decay rate: -1.47e-06 rev/day^2 Epoch rev: 65302 Checksum: 320
Satellite: SICH-1 Catalog number: 23657 Epoch time: 07241.63769399 Element set: 0158 Inclination: 082.5302 deg RA of node: 008.9529 deg Eccentricity: 0.0024178 Arg of perigee: 006.1983 deg Mean anomaly: 353.9504 deg Mean motion: 14.81508475 rev/day Decay rate: 7.0e-08 rev/day^2 Epoch rev: 64690 Checksum: 322
Satellite: NOAA-15 Catalog number: 25338 Epoch time: 07241.49429499 Element set: 0135 Inclination: 098.5346 deg RA of node: 236.1271 deg Eccentricity: 0.0010800 Arg of perigee: 169.9361 deg Mean anomaly: 190.2086 deg Mean motion: 14.24662201 rev/day Decay rate: -3.0e-08 rev/day^2 Epoch rev: 48312 Checksum: 289
Satellite: RESURS Catalog number: 25394 Epoch time: 07241.69809706 Element set: 0736 Inclination: 098.4317 deg RA of node: 293.2952 deg Eccentricity: 0.0001704 Arg of perigee: 009.5262 deg Mean anomaly: 350.5950 deg Mean motion: 14.24143795 rev/day Decay rate: -2.0e-07 rev/day^2 Epoch rev: 47481 Checksum: 302
Satellite: FENGYUN1 Catalog number: 25730 Epoch time: 07242.91744480 Element set: 209 Inclination: 098.6925 deg RA of node: 223.9666 deg Eccentricity: 0.0018217 Arg of perigee: 280.3543 deg Mean anomaly: 079.5571 deg Mean motion: 14.07592339 rev/day Decay rate: 4.75e-06 rev/day^2 Epoch rev: 42798 Checksum: 330
Satellite: OKEAN-0 Catalog number: 25860 Epoch time: 07241.57320732 Element set: 0145 Inclination: 097.7339 deg RA of node: 240.4048 deg Eccentricity: 0.0001665 Arg of perigee: 096.6966 deg Mean anomaly: 263.4431 deg Mean motion: 14.73470166 rev/day Decay rate: 2.5e-07 rev/day^2 Epoch rev: 43630 Checksum: 290
Satellite: NOAA-16 Catalog number: 26536 Epoch time: 07241.50764531 Element set: 0566 Inclination: 099.1231 deg RA of node: 219.7500 deg Eccentricity: 0.0010111 Arg of perigee: 332.5733 deg Mean anomaly: 027.4973 deg Mean motion: 14.12448541 rev/day Decay rate: 1.37e-06 rev/day^2 Epoch rev: 35745 Checksum: 281
Satellite: NOAA-17 Catalog number: 27453 Epoch time: 07241.66949521 Element set: 0570 Inclination: 098.5749 deg RA of node: 309.1922 deg Eccentricity: 0.0011040 Arg of perigee: 237.0567 deg Mean anomaly: 122.9568 deg Mean motion: 14.23904282 rev/day Decay rate: 1.8e-07 rev/day^2 Epoch rev: 26917 Checksum: 314
Satellite: NOAA-18 Catalog number: 28654 Epoch time: 07241.64220389 Element set: 0100 Inclination: 098.8305 deg RA of node: 181.7030 deg Eccentricity: 0.0015399 Arg of perigee: 062.0597 deg Mean anomaly: 298.2121 deg Mean motion: 14.11088707 rev/day Decay rate: -1.52e-06 rev/day^2 Epoch rev: 11721 Checksum: 285
/EX SB KEPS @ AMSAT $ORB07242.M Orbital Elements 07242.MISC
HR AMSAT ORBITAL ELEMENTS FOR MANNED AND MISCELLANEOUS SATELLITES FROM WA5QGD FORT WORTH,TX August 30, 2007 Send Subscribe/unsubscribe to KEPS at http://www.amsat.org/mailman/listinfo/keps BID: ORB07242.M TO ALL RADIO AMATEURS BT
Satellite: HUBBLE Catalog number: 20580 Epoch time: 07241.84996683 Element set: 949 Inclination: 028.4673 deg RA of node: 069.7592 deg Eccentricity: 0.0003978 Arg of perigee: 161.1626 deg Mean anomaly: 198.9110 deg Mean motion: 15.00272658 rev/day Decay rate: 3.25e-06 rev/day^2 Epoch rev: 75103 Checksum: 322
Satellite: UARS Catalog number: 21701 Epoch time: 07241.80924394 Element set: 155 Inclination: 056.9769 deg RA of node: 354.3010 deg Eccentricity: 0.0088533 Arg of perigee: 338.1917 deg Mean anomaly: 021.5380 deg Mean motion: 15.48727417 rev/day Decay rate: 3.448e-05 rev/day^2 Epoch rev: 87715 Checksum: 312
Satellite: PO-34 Catalog number: 25520 Epoch time: 07241.59382281 Element set: 811 Inclination: 028.4612 deg RA of node: 337.4238 deg Eccentricity: 0.0004947 Arg of perigee: 334.3455 deg Mean anomaly: 025.6891 deg Mean motion: 15.17040060 rev/day Decay rate: 4.60e-06 rev/day^2 Epoch rev: 48868 Checksum: 296
Satellite: ISS Catalog number: 25544 Epoch time: 07242.82805392 Element set: 889 Inclination: 051.6347 deg RA of node: 078.6658 deg Eccentricity: 0.0008401 Arg of perigee: 309.0313 deg Mean anomaly: 184.9537 deg Mean motion: 15.76384560 rev/day Decay rate: 1.4684e-04 rev/day^2 Epoch rev: 50255 Checksum: 324
Satellite: OO-38 Catalog number: 26063 Epoch time: 07241.61742850 Element set: 0998 Inclination: 100.2295 deg RA of node: 257.8099 deg Eccentricity: 0.0036643 Arg of perigee: 313.8140 deg Mean anomaly: 046.0015 deg Mean motion: 14.35813679 rev/day Decay rate: -9.0e-08 rev/day^2 Epoch rev: 39758 Checksum: 319
Satellite: UWE-1 Catalog number: 28892 Epoch time: 07241.42963222 Element set: 0835 Inclination: 098.1218 deg RA of node: 136.5881 deg Eccentricity: 0.0016298 Arg of perigee: 242.6581 deg Mean anomaly: 117.3094 deg Mean motion: 14.59534805 rev/day Decay rate: 1.50e-06 rev/day^2 Epoch rev: 09789 Checksum: 323
Satellite: CO-58 Catalog number: 28895 Epoch time: 07241.26890636 Element set: 0813 Inclination: 098.1248 deg RA of node: 136.6707 deg Eccentricity: 0.0016853 Arg of perigee: 244.4619 deg Mean anomaly: 115.4988 deg Mean motion: 14.59579742 rev/day Decay rate: 2.76e-06 rev/day^2 Epoch rev: 09775 Checksum: 368
Satellite: NCUBE2 Catalog number: 28897 Epoch time: 07241.67827709 Element set: 340 Inclination: 098.1200 deg RA of node: 137.0212 deg Eccentricity: 0.0016209 Arg of perigee: 243.5551 deg Mean anomaly: 116.3999 deg Mean motion: 14.59742612 rev/day Decay rate: 5.9e-07 rev/day^2 Epoch rev: 9009 Checksum: 303
Satellite: NMARS Catalog number: 29662 Epoch time: 07126.39603970 Element set: 263 Inclination: 051.6121 deg RA of node: 302.3682 deg Eccentricity: 0.0004459 Arg of perigee: 252.1654 deg Mean anomaly: 110.7411 deg Mean motion: 16.47981436 rev/day Decay rate: 7.031946e-02 rev/day^2 Epoch rev: 2165 Checksum: 289
Satellite: FCAL Catalog number: 29667 Epoch time: 07241.95166224 Element set: 0306 Inclination: 051.6318 deg RA of node: 066.7339 deg Eccentricity: 0.0012104 Arg of perigee: 272.5079 deg Mean anomaly: 087.4548 deg Mean motion: 15.90672055 rev/day Decay rate: 1.8176e-04 rev/day^2 Epoch rev: 03973 Checksum: 314
Satellite: FALCON Catalog number: 30776 Epoch time: 07241.86847467 Element set: 0132 Inclination: 035.4331 deg RA of node: 125.9846 deg Eccentricity: 0.0001486 Arg of perigee: 339.4114 deg Mean anomaly: 020.6545 deg Mean motion: 15.02754657 rev/day Decay rate: 1.71e-06 rev/day^2 Epoch rev: 02614 Checksum: 286
Satellite: MAST Catalog number: 31126 Epoch time: 07241.64915856 Element set: 0120 Inclination: 098.0774 deg RA of node: 312.1834 deg Eccentricity: 0.0095141 Arg of perigee: 157.5783 deg Mean anomaly: 202.9614 deg Mean motion: 14.53361232 rev/day Decay rate: 3.43e-06 rev/day^2 Epoch rev: 01952 Checksum: 277
Satellite: CAPE1 Catalog number: 31130 Epoch time: 07242.88917160 Element set: 105 Inclination: 098.0763 deg RA of node: 313.0620 deg Eccentricity: 0.0103551 Arg of perigee: 154.6361 deg Mean anomaly: 205.9970 deg Mean motion: 14.51878568 rev/day Decay rate: -3.53e-06 rev/day^2 Epoch rev: 1945 Checksum: 284
/EX